EW7772 Weather Reports


time (UTC)temp
F
wind
direction
speed
knots
gust
knots
rain 1hr
in
rain 24hr
in
rain mn
in
humidity
%
barometer
mb
20260903091521 71 301 0.0 4.3 0.00 0.00 0.00 53 1022.6
20260903090017 70 317 0.0 5.2 0.00 0.00 0.00 56 1022.5
20260903084526 69 274 0.0 3.5 0.00 0.00 0.00 62 1022.2
20260903083019 67 232 0.0 2.6 0.00 0.00 0.00 69 1022.4
20260903081507 66 300 0.0 2.6 0.00 0.00 0.00 70 1022.6
20260903080006 64 286 0.0 2.6 0.00 0.00 0.00 74 1022.6
20260903074605 63 294 0.0 0.0 0.00 0.00 0.00 76 1022.7
20260903073057 61 294 0.0 0.9 0.00 0.00 0.00 79 1022.7
20260903071555 60 294 0.0 0.0 0.00 0.00 0.00 81 1022.8
20260903070054 59 294 0.0 0.9 0.00 0.00 0.00 83 1022.7
20260903064602 58 294 0.0 0.9 0.00 0.00 0.00 86 1022.4
20260903063054 57 294 0.0 0.0 0.00 0.00 0.00 88 1022.7
20260903061554 55 294 0.0 0.0 0.00 0.00 0.00 89 1022.6
20260903060055 54 294 0.0 0.0 0.00 0.00 0.00 91 1022.9
20260903054552 53 294 0.0 0.0 0.00 0.00 0.00 92 1022.8
20260903053103 53 294 0.0 0.0 0.00 0.00 0.00 92 1022.6
20260903051550 53 294 0.0 0.0 0.00 0.00 0.00 92 1022.3
20260903050046 53 294 0.0 0.0 0.00 0.00 0.00 91 1022.1
20260903044546 53 294 0.0 0.0 0.00 0.00 0.00 91 1021.9
20260903043044 53 294 0.0 0.0 0.00 0.00 0.00 91 1021.9
20260903041601 53 294 0.0 0.0 0.00 0.00 0.00 91 1022.0
20260903040057 53 294 0.0 0.0 0.00 0.00 0.00 91 1022.1
20260903034542 53 294 0.0 0.0 0.00 0.00 0.00 91 1022.2
20260903033044 53 294 0.0 0.0 0.00 0.00 0.00 91 1022.3
20260903031539 54 294 0.0 0.0 0.00 0.00 0.00 91 1022.1
20260903030042 54 294 0.0 0.0 0.00 0.00 0.00 90 1022.1
20260903024537 54 294 0.0 0.0 0.00 0.00 0.00 90 1022.1
20260903023036 54 294 0.0 0.0 0.00 0.00 0.00 90 1022.2
20260903021538 55 294 0.0 0.0 0.00 0.00 0.00 90 1022.1
20260903020033 55 294 0.0 0.0 0.00 0.00 0.00 90 1022.1
20260903014531 55 294 0.0 0.0 0.00 0.00 0.00 89 1022.1
20260903013029 56 294 0.0 0.0 0.00 0.00 0.00 88 1022.1
20260903011528 56 294 0.0 0.0 0.00 0.00 0.00 88 1022.2
20260903010026 57 294 0.0 0.0 0.00 0.00 0.00 88 1022.1
20260903004524 57 294 0.0 0.0 0.00 0.00 0.00 87 1021.9
20260903003022 57 294 0.0 0.0 0.00 0.00 0.00 87 1021.9
20260903001525 58 294 0.0 0.0 0.00 0.00 0.00 86 1021.8
20260903000023 58 294 0.0 0.0 0.00 0.00 0.00 85 1021.8
20260902234516 59 294 0.0 0.0 0.00 0.00 0.00 85 1021.9
20260902233015 59 294 0.0 0.0 0.00 0.00 0.00 84 1021.8
20260902231522 60 294 0.0 0.0 0.00 0.00 0.00 84 1021.8
20260902230011 60 294 0.0 0.0 0.00 0.00 0.00 84 1021.8
20260902224510 60 294 0.0 0.0 0.00 0.00 0.00 83 1021.7
20260902223008 61 294 0.0 0.0 0.00 0.00 0.00 82 1021.7
20260902221506 61 294 0.0 0.0 0.00 0.00 0.00 81 1021.7
20260902214620 62 294 0.0 0.0 0.00 0.00 0.00 80 1021.7
20260902213050 62 294 0.0 0.0 0.00 0.00 0.00 79 1021.6
20260902211548 62 294 0.0 0.0 0.00 0.00 0.00 78 1021.6
20260902210055 63 294 0.0 0.0 0.00 0.00 0.00 77 1021.5
20260902204547 63 294 0.0 0.0 0.00 0.00 0.00 76 1021.4
20260902203048 64 294 0.0 0.0 0.00 0.00 0.00 75 1021.3
20260902201548 64 294 0.0 0.0 0.00 0.00 0.00 74 1021.2
20260902200045 65 294 0.0 0.0 0.00 0.00 0.00 72 1021.1
20260902194547 65 294 0.0 0.0 0.00 0.00 0.00 72 1021.1
20260902193046 65 294 0.0 0.0 0.00 0.00 0.00 70 1021.0
20260902191555 66 294 0.0 0.0 0.00 0.00 0.00 68 1020.9
20260902190053 67 294 0.0 0.0 0.00 0.00 0.00 66 1020.7
20260902184543 68 294 0.0 0.0 0.00 0.00 0.00 64 1020.7
20260902183043 69 294 0.0 0.0 0.00 0.00 0.00 61 1020.4
20260902181549 70 294 0.0 0.0 0.00 0.00 0.00 59 1020.4
20260902180044 71 294 0.0 0.9 0.00 0.00 0.00 57 1020.1
20260902174543 72 294 0.0 0.9 0.00 0.00 0.00 55 1020.0
20260902173042 73 294 0.0 1.7 0.00 0.00 0.00 54 1019.9
20260902171603 73 294 0.0 1.7 0.00 0.00 0.00 53 1019.7
20260902170040 74 290 0.0 0.9 0.00 0.00 0.00 52 1019.7
20260902164541 74 243 0.0 1.7 0.00 0.00 0.00 52 1019.6
20260902163039 75 242 0.0 2.6 0.00 0.00 0.00 55 1019.7
20260902161545 75 217 0.0 3.5 0.00 0.00 0.00 53 1019.7
20260902160042 75 229 0.0 0.9 0.00 0.00 0.00 53 1019.6
20260902154538 75 265 0.0 3.5 0.00 0.00 0.00 53 1019.7
20260902153037 75 264 0.0 2.6 0.00 0.00 0.00 53 1019.6
20260902151542 76 267 0.0 3.5 0.00 0.00 0.00 51 1019.7
20260902150036 78 307 0.0 3.5 0.00 0.00 0.00 48 1019.7
20260902144536 78 241 0.0 2.6 0.00 0.00 0.00 50 1019.5
20260902143035 77 239 0.0 2.6 0.00 0.00 0.00 50 1019.6
20260902141545 76 288 0.0 2.6 0.00 0.00 0.00 48 1019.7
20260902140035 77 227 0.0 3.5 0.00 0.00 0.00 47 1019.7
20260902134537 77 280 0.0 0.9 0.00 0.00 0.00 45 1019.6
20260902133037 79 242 0.9 4.3 0.00 0.00 0.00 41 1019.5
20260902131533 80 281 1.7 4.3 0.00 0.00 0.00 41 1019.5
20260902130036 80 234 0.0 4.3 0.00 0.00 0.00 44 1019.7
20260902124529 79 281 0.0 2.6 0.00 0.00 0.00 44 1019.8
20260902123028 79 288 0.0 3.5 0.00 0.00 0.00 43 1019.9
20260902121525 78 269 0.0 2.6 0.00 0.00 0.00 46 1020.0
20260902120025 78 274 0.0 1.7 0.00 0.00 0.00 44 1020.0
20260902114527 79 267 0.0 3.5 0.00 0.00 0.00 47 1020.2
20260902113020 78 320 0.0 1.7 0.00 0.00 0.00 48 1020.4
20260902111518 77 266 0.0 2.6 0.00 0.00 0.00 48 1020.5
20260902110015 77 265 0.0 2.6 0.00 0.00 0.00 50 1020.7
20260902104515 76 287 0.0 3.5 0.00 0.00 0.00 50 1020.8
20260902103009 75 300 0.0 0.9 0.00 0.00 0.00 56 1020.9
20260902101505 73 300 0.0 1.7 0.00 0.00 0.00 58 1021.0
20260902100001 71 300 0.0 1.7 0.00 0.00 0.00 61 1021.1
20260902094558 69 300 0.0 1.7 0.00 0.00 0.00 64 1021.4
20260902093053 67 336 0.0 0.9 0.00 0.00 0.00 66 1021.4